Location: DARK SKY Beskydy - Park tmavé oblohy, www.darkskybeskydy.cz
(49.4926°N, 18.5016°E)
Time: 11:05:05
(UTC+02:00)

Vanguard 1 - Pass Details

Date: 25 February 2024
Orbit: 653 x 3825 km, 34.2° (Epoch: 12 April)

Event Time Altitude Azimuth Distance (km) Brightness Sun altitude
Rises 20:27:41 0° 241° (WSW) 5,665 14.4 -30.5°
Reaches altitude 10° 20:31:00 10° 235° (SW) 5,020 14.0 -31.0°
Maximum altitude 20:45:57 48° 167° (SSE) 3,971 12.7 -33.1°
Enters shadow 20:49:57 45° 143° (SE) 4,294 12.7 -33.7°
Drops below altitude 10° 21:07:14 10° 103° (ESE) 6,927 - -36.1°
Sets 21:12:51 0° 99° (E) 7,887 - -36.8°
